When you browse on this site, cookies collect data to enhance your experience and personalize the content and advertising you see.
Visit our Privacy Policy to learn more. By continuing to use the site, you agree to this use of cookies and data.
  • In Hungary
  • List of Countries
  • For 7 days
  • Water Temperature
  • Weather Map
  • News
  • Weather Widgets
  • user-avatar
    Login

    Hourly Weather Sosnica

    Today, 23 January, Thursday

    Time Temperature Precipitation Wind Pressure Humidity
    00:00 -8°C° 0.1 mm 6 mps 734 mmHg 80%
    01:00 -8°C° 0.1 mm 6 mps 735 mmHg 78%
    02:00 -8°C° 0.1 mm 6 mps 736 mmHg 77%
    03:00 -8°C° 0 mm 6 mps 736 mmHg 73%
    04:00 -8°C° 0 mm 6 mps 736 mmHg 70%
    05:00 -8°C° 0 mm 6 mps 736 mmHg 67%
    06:00 -9°C° 0 mm 6 mps 737 mmHg 65%
    07:00 -9°C° 0 mm 6 mps 738 mmHg 64%
    08:00 -9°C° 0 mm 6 mps 738 mmHg 62%
    09:00 -8°C° 0 mm 6 mps 739 mmHg 61%
    10:00 -8°C° 0 mm 6 mps 739 mmHg 60%
    11:00 -6°C° 0 mm 6 mps 739 mmHg 59%
    12:00 -6°C° 0 mm 6 mps 739 mmHg 62%
    13:00 -6°C° 0 mm 6 mps 740 mmHg 65%
    14:00 -6°C° 0 mm 6 mps 740 mmHg 69%
    15:00 -6°C° 0 mm 6 mps 740 mmHg 69%
    16:00 -6°C° 0 mm 5 mps 740 mmHg 70%
    17:00 -6°C° 0 mm 5 mps 740 mmHg 71%
    18:00 -5°C° 0 mm 4 mps 740 mmHg 71%
    19:00 -5°C° 0 mm 4 mps 740 mmHg 71%
    20:00 -5°C° 0 mm 3 mps 740 mmHg 71%
    21:00 -5°C° 0 mm 3 mps 740 mmHg 74%
    22:00 -5°C° 0 mm 3 mps 740 mmHg 78%
    23:00 -5°C° 0 mm 3 mps 740 mmHg 81%

    Tomorrow, 24 January, Friday

    Time Temperature Precipitation Wind Pressure Humidity
    00:00 -5°C° 0 mm 3 mps 739 mmHg 83%
    01:00 -4°C° 0 mm 3 mps 739 mmHg 86%
    02:00 -4°C° 0 mm 4 mps 738 mmHg 88%
    03:00 -4°C° 0 mm 4 mps 737 mmHg 87%
    04:00 -4°C° 0 mm 4 mps 736 mmHg 86%
    05:00 -5°C° 0 mm 5 mps 735 mmHg 85%
    06:00 -4°C° 0.1 mm 5 mps 734 mmHg 89%
    07:00 -4°C° 0.1 mm 5 mps 734 mmHg 92%
    08:00 -2°C° 0.1 mm 4 mps 733 mmHg 95%
    09:00 -2°C° 0.1 mm 4 mps 733 mmHg 95%
    10:00 -1°C° 0.1 mm 4 mps 732 mmHg 95%
    11:00 0°C° 0.1 mm 4 mps 732 mmHg 95%
    12:00 0°C° 0 mm 5 mps 731 mmHg 94%
    13:00 0°C° 0 mm 5 mps 731 mmHg 93%
    14:00 +1°C° 0 mm 5 mps 731 mmHg 92%
    15:00 +1°C° 0.2 mm 5 mps 730 mmHg 93%
    16:00 0°C° 0.2 mm 5 mps 730 mmHg 94%
    17:00 0°C° 0.2 mm 5 mps 730 mmHg 95%
    18:00 0°C° 0.5 mm 5 mps 730 mmHg 96%
    19:00 0°C° 0.5 mm 4 mps 730 mmHg 96%
    20:00 -1°C° 0.5 mm 4 mps 731 mmHg 96%
    21:00 -1°C° 0.1 mm 4 mps 731 mmHg 95%
    22:00 -1°C° 0.1 mm 4 mps 731 mmHg 94%
    23:00 -1°C° 0.1 mm 4 mps 731 mmHg 93%

    Day after tomorrow, 25 January, Saturday

    Time Temperature Precipitation Wind Pressure Humidity
    00:00 -1°C° 0 mm 4 mps 731 mmHg 93%
    01:00 -1°C° 0 mm 3 mps 730 mmHg 93%
    02:00 -1°C° 0 mm 3 mps 730 mmHg 92%
    03:00 -2°C° 0 mm 3 mps 730 mmHg 93%
    04:00 -2°C° 0 mm 3 mps 730 mmHg 93%
    05:00 -3°C° 0 mm 4 mps 729 mmHg 93%
    06:00 -2°C° 0 mm 4 mps 729 mmHg 89%
    07:00 -2°C° 0 mm 5 mps 729 mmHg 85%
    08:00 -2°C° 0 mm 6 mps 729 mmHg 82%
    09:00 -2°C° 0.1 mm 6 mps 729 mmHg 78%
    10:00 -2°C° 0.1 mm 7 mps 729 mmHg 74%
    11:00 -3°C° 0.1 mm 7 mps 729 mmHg 71%
    12:00 -3°C° 0.4 mm 7 mps 729 mmHg 71%
    13:00 -4°C° 0.4 mm 8 mps 729 mmHg 71%
    14:00 -4°C° 0.4 mm 8 mps 729 mmHg 71%
    15:00 -3°C° 0.2 mm 7 mps 729 mmHg 71%
    16:00 -4°C° 0.2 mm 6 mps 730 mmHg 72%
    17:00 -4°C° 0.2 mm 6 mps 730 mmHg 73%
    18:00 -4°C° 0 mm 6 mps 731 mmHg 74%
    19:00 -5°C° 0 mm 6 mps 732 mmHg 76%
    20:00 -5°C° 0 mm 6 mps 733 mmHg 77%
    21:00 -5°C° 0 mm 6 mps 733 mmHg 76%
    22:00 -5°C° 0 mm 6 mps 734 mmHg 75%
    23:00 -5°C° 0 mm 5 mps 735 mmHg 74%

    26 January, Sunday

    Time Temperature Precipitation Wind Pressure Humidity
    00:00 -6°C° 0 mm 5 mps 735 mmHg 75%
    01:00 -6°C° 0 mm 5 mps 736 mmHg 77%
    02:00 -6°C° 0 mm 5 mps 737 mmHg 78%
    03:00 -5°C° 0 mm 4 mps 737 mmHg 79%
    04:00 -5°C° 0 mm 4 mps 738 mmHg 80%
    05:00 -5°C° 0 mm 4 mps 738 mmHg 81%
    06:00 -5°C° 0 mm 4 mps 739 mmHg 82%
    07:00 -5°C° 0 mm 3 mps 740 mmHg 83%
    08:00 -6°C° 0 mm 3 mps 740 mmHg 84%
    09:00 -5°C° 0 mm 3 mps 741 mmHg 82%
    10:00 -5°C° 0 mm 3 mps 741 mmHg 80%
    11:00 -4°C° 0 mm 3 mps 742 mmHg 78%
    12:00 -4°C° 0 mm 3 mps 742 mmHg 76%
    13:00 -2°C° 0 mm 3 mps 742 mmHg 75%
    14:00 -2°C° 0 mm 3 mps 743 mmHg 74%
    15:00 -3°C° 0 mm 2 mps 743 mmHg 77%
    16:00 -3°C° 0 mm 2 mps 743 mmHg 80%
    17:00 -4°C° 0 mm 2 mps 743 mmHg 84%
    18:00 -4°C° 0 mm 2 mps 743 mmHg 86%
    19:00 -3°C° 0 mm 2 mps 743 mmHg 87%
    20:00 -3°C° 0 mm 2 mps 743 mmHg 89%
    21:00 -3°C° 0.1 mm 2 mps 743 mmHg 91%
    22:00 -3°C° 0.1 mm 2 mps 743 mmHg 93%
    23:00 -2°C° 0.1 mm 3 mps 743 mmHg 96%

    27 January, Monday

    Time Temperature Precipitation Wind Pressure Humidity
    00:00 -2°C° 0.3 mm 3 mps 742 mmHg 96%
    01:00 -2°C° 0.3 mm 3 mps 742 mmHg 97%
    02:00 -1°C° 0.3 mm 3 mps 742 mmHg 97%
    03:00 -1°C° 0.3 mm 3 mps 741 mmHg 97%
    04:00 -1°C° 0.3 mm 3 mps 741 mmHg 97%
    05:00 -1°C° 0.3 mm 3 mps 741 mmHg 97%
    06:00 0°C° 0.1 mm 3 mps 740 mmHg 97%
    07:00 0°C° 0.1 mm 3 mps 740 mmHg 97%
    08:00 0°C° 0.1 mm 3 mps 740 mmHg 97%
    09:00 0°C° 0.2 mm 3 mps 740 mmHg 97%
    10:00 +1°C° 0.2 mm 3 mps 740 mmHg 97%
    11:00 +1°C° 0.2 mm 3 mps 740 mmHg 97%
    12:00 0°C° 0.2 mm 4 mps 740 mmHg 97%
    13:00 -1°C° 0.2 mm 4 mps 739 mmHg 97%
    14:00 -1°C° 0.2 mm 4 mps 739 mmHg 97%
    15:00 -1°C° 0.2 mm 4 mps 738 mmHg 97%
    16:00 -1°C° 0.2 mm 4 mps 738 mmHg 97%
    17:00 0°C° 0.2 mm 3 mps 738 mmHg 97%
    18:00 -1°C° 0.2 mm 4 mps 737 mmHg 97%
    19:00 -1°C° 0.2 mm 4 mps 737 mmHg 97%
    20:00 -1°C° 0.2 mm 4 mps 736 mmHg 96%
    21:00 -1°C° 0.1 mm 4 mps 736 mmHg 96%
    22:00 -1°C° 0.1 mm 4 mps 735 mmHg 97%
    23:00 -2°C° 0.1 mm 4 mps 735 mmHg 97%

    28 January, Tuesday

    Time Temperature Precipitation Wind Pressure Humidity
    00:00 -1°C° 0.4 mm 4 mps 735 mmHg 97%
    01:00 -1°C° 0.4 mm 4 mps 734 mmHg 97%
    02:00 -1°C° 0.4 mm 4 mps 734 mmHg 97%
    03:00 -1°C° 0.6 mm 4 mps 734 mmHg 95%
    04:00 -1°C° 0.6 mm 4 mps 734 mmHg 94%
    05:00 -1°C° 0.6 mm 5 mps 734 mmHg 92%
    06:00 -1°C° 0 mm 5 mps 735 mmHg 91%
    07:00 -1°C° 0 mm 4 mps 735 mmHg 90%
    08:00 -2°C° 0 mm 4 mps 736 mmHg 89%
    09:00 -2°C° 0 mm 4 mps 736 mmHg 88%
    10:00 -2°C° 0 mm 4 mps 737 mmHg 87%
    11:00 -2°C° 0 mm 4 mps 737 mmHg 86%
    12:00 -2°C° 0 mm 4 mps 737 mmHg 85%
    13:00 0°C° 0 mm 3 mps 737 mmHg 85%
    14:00 0°C° 0 mm 3 mps 737 mmHg 84%
    15:00 -1°C° 0 mm 3 mps 737 mmHg 85%
    16:00 -1°C° 0 mm 3 mps 737 mmHg 87%
    17:00 -2°C° 0 mm 3 mps 737 mmHg 89%
    18:00 -2°C° 0 mm 4 mps 736 mmHg 89%
    19:00 -2°C° 0 mm 4 mps 736 mmHg 89%
    20:00 -2°C° 0 mm 4 mps 735 mmHg 90%
    21:00 -1°C° 0.2 mm 5 mps 734 mmHg 92%
    22:00 0°C° 0.2 mm 5 mps 734 mmHg 93%
    23:00 +1°C° 0.2 mm 5 mps 733 mmHg 95%
    Show more